Theta_e
331 340 344 342 344 345 346 347 349 350 352 356 358 358 360 362 363 357 355 357 353 353 353 356 362 365 361 362 362 363 365 357 355
332 337 343 344 345 345 347 348 349 351 353 356 357 356 359 360 362 361 356 358 358 355 360 356 361 364 363 362 362 363 365 357 359
330 338 341 344 346 346 347 348 350 352 354 355 357 356 357 357 359 361 361 359 358 359 357 362 360 364 364 362 364 365 366 360 361
326 330 337 340 343 346 347 348 349 350 352 354 355 356 357 357 357 358 360 358 358 360 360 361 363 365 365 364 362 364 366 364 361
322 326 328 331 336 344 347 348 349 349 350 350 353 354 357 356 359 358 356 358 358 361 360 361 364 366 366 361 362 364 366 362 359
319 321 322 326 329 332 337 339 348 348 349 349 350 353 351 353 353 355 355 356 359 360 360 360 359 362 365 364 361 363 365 365 364
316 318 320 322 323 325 328 334 338 341 348 349 350 350 352 350 353 354 354 356 359 359 360 360 359 360 362 363 363 363 365 365 365
317 317 317 319 320 322 324 325 330 334 338 344 352 351 350 352 355 356 356 354 357 359 360 360 361 359 360 362 361 359 365 365 364
312 313 314 317 319 322 322 324 326 326 328 336 347 351 351 354 355 357 357 357 351 358 359 360 361 359 358 357 353 340 338 352 362
310 310 311 313 315 317 320 322 325 325 326 332 334 345 352 352 354 355 356 358 358 358 357 359 360 359 359 360 360 334 333 339 356
312 312 312 313 313 315 318 320 321 327 329 331 330 330 332 335 348 351 355 356 357 358 358 358 358 358 361 360 360 334 331 335 356
311 312 313 313 314 316 319 319 321 324 326 332 330 327 328 330 333 340 349 353 354 358 357 357 357 358 359 360 362 330 329 336 354
311 312 312 313 314 315 317 318 319 321 323 325 329 330 329 330 332 332 335 346 352 356 359 356 356 357 359 349 360 336 324 333 352
311 311 312 312 314 314 316 317 317 318 321 322 327 329 330 329 330 332 334 335 343 352 357 362 360 357 360 362 356 357 323 321 353
309 310 310 311 311 312 315 317 316 316 318 323 327 328 328 329 329 327 331 337 339 339 347 349 356 359 361 359 364 338 329 319 322
309 309 310 311 311 311 313 315 316 315 318 320 323 326 326 326 328 329 330 331 335 338 342 344 349 352 351 358 359 362 327 320 318
307 309 309 311 312 311 312 314 315 316 318 319 320 323 324 324 324 324 327 327 329 332 334 335 340 343 350 354 359 362 359 355 343
307 307 307 307 309 308 306 309 311 315 318 320 318 320 321 321 321 323 323 325 326 325 327 327 330 333 340 342 349 358 325 328 360
303 304 306 307 306 308 309 309 310 313 313 313 316 318 318 318 318 319 320 320 322 313 308 305 304 304 311 330 320 314 312 308 311
303 304 305 305 304 304 306 306 307 310 312 311 308 310 315 315 315 317 317 318 319 318 319 309 305 303 303 302 306 304 307 302 304
Wind_Speed
4 19 18 19 19 19 19 17 18 17 17 17 17 17 16 13 13 10 10 10 8 7 6 6 6 9 8 8 7 6 5 5 5
13 5 17 17 18 17 17 18 18 18 17 16 17 18 14 15 13 14 10 10 8 8 7 5 6 8 9 8 8 7 7 7 5
15 2 6 14 15 16 16 17 17 18 17 16 16 16 15 14 14 14 13 11 11 10 8 8 6 9 9 9 9 9 8 5 7
15 18 12 11 6 12 14 14 15 16 16 16 14 15 14 15 15 15 13 13 12 12 11 10 10 10 10 10 10 9 9 8 5
14 16 15 15 18 14 9 12 12 14 14 14 13 11 11 13 11 13 14 13 13 12 12 12 11 11 9 10 11 10 10 10 8
13 16 18 16 15 15 15 19 3 8 9 11 13 11 12 13 14 14 15 14 13 13 12 13 13 12 11 10 12 12 12 11 11
13 14 14 14 14 13 13 13 14 16 13 4 9 10 12 12 14 15 15 16 14 14 13 13 14 14 13 12 11 12 13 13 12
13 14 15 15 15 12 12 13 12 12 13 14 11 9 10 11 12 12 14 14 16 15 14 14 14 14 15 14 13 11 13 13 13
13 14 15 14 15 15 14 14 13 11 11 12 11 10 10 11 10 11 12 13 12 15 15 15 15 15 16 16 13 13 11 12 13
13 13 13 14 13 13 13 13 13 13 11 12 12 14 8 9 12 11 11 12 13 14 15 15 15 16 16 16 16 13 13 15 16
11 11 12 12 12 13 13 13 12 9 8 9 11 12 13 15 12 10 9 9 12 14 13 14 14 15 16 16 15 14 17 16 17
9 10 10 10 11 12 11 13 13 13 11 12 6 10 11 12 10 14 12 11 10 10 10 12 14 14 16 16 16 13 16 14 17
8 9 10 11 12 12 11 13 14 13 12 12 12 13 9 8 12 9 12 13 13 11 12 12 11 14 15 16 17 13 15 16 13
8 9 9 11 11 11 10 12 13 13 13 13 13 13 13 13 10 11 10 9 11 13 12 12 12 14 13 14 16 17 15 17 16
9 10 10 10 10 11 11 11 12 13 12 14 14 12 13 13 13 10 8 11 9 11 11 9 11 12 11 12 14 16 13 18 22
10 11 10 10 10 11 11 11 11 14 13 14 15 13 13 12 13 12 11 12 10 8 10 11 9 6 7 10 13 14 20 20 21
8 9 11 12 12 11 12 12 13 13 15 15 14 14 14 13 12 11 11 10 10 8 8 7 11 9 6 8 10 12 11 11 11
8 9 9 10 10 9 10 12 13 14 17 15 15 15 13 13 12 11 11 10 9 10 12 9 9 11 11 9 11 12 12 13 9
8 9 10 9 10 11 11 12 13 13 12 13 15 12 12 11 10 11 10 11 11 10 12 11 14 17 13 11 17 19 21 21 18
5 8 8 7 8 10 11 12 13 14 13 11 10 12 14 12 12 11 12 12 12 13 12 10 12 15 15 16 20 18 20 20 17
Wind_Direction
208 204 204 196 200 196 194 196 195 199 197 203 202 205 212 217 218 222 225 221 257 213 222 200 162 187 197 202 200 210 207 209 235
358 238 202 197 193 201 199 196 197 199 202 206 207 209 206 211 214 223 229 244 219 230 235 230 200 197 196 206 204 207 198 237 208
7 30 298 204 195 192 199 198 199 202 204 208 211 213 211 208 209 215 222 227 235 251 244 236 213 206 203 204 210 203 203 210 195
26 26 31 0 265 202 197 203 205 206 211 214 213 209 217 216 211 213 213 222 221 225 235 233 229 217 216 216 215 215 212 230 238
38 41 34 38 13 356 196 197 212 205 211 213 216 222 215 221 220 219 215 219 224 222 225 226 225 224 216 218 217 219 218 223 218
49 46 42 40 35 26 19 12 328 223 220 222 204 213 223 222 221 220 226 218 223 221 223 227 228 226 222 220 223 218 217 226 228
57 54 56 50 44 35 21 19 17 6 343 261 232 221 202 217 226 222 224 226 219 220 219 226 229 227 232 230 227 226 230 221 226
67 56 46 42 39 39 37 29 20 13 354 342 327 297 254 227 225 227 234 224 230 225 222 220 227 227 226 231 236 230 221 230 227
57 50 41 35 34 30 33 26 18 10 353 340 319 297 276 282 252 233 231 234 239 233 227 227 227 228 226 225 229 230 210 233 234
50 38 32 27 24 22 14 20 16 12 358 353 356 351 299 264 275 267 246 241 237 229 230 232 229 233 232 229 228 216 203 205 235
35 28 20 17 12 7 7 6 10 2 359 9 10 7 2 356 342 286 268 257 248 241 235 232 232 233 234 236 233 214 206 201 229
21 10 6 4 358 354 353 0 356 354 353 2 19 9 360 349 340 330 323 265 252 250 241 237 235 234 236 236 240 214 208 199 231
2 355 353 348 344 338 348 353 346 345 348 346 356 352 345 336 334 334 334 327 307 264 245 238 244 240 237 237 246 224 204 202 234
338 337 336 338 333 332 342 340 340 335 336 340 342 339 337 341 339 326 324 326 320 309 272 254 240 240 247 252 244 240 206 200 227
330 331 328 327 320 323 328 332 328 325 324 329 325 326 326 330 332 328 318 315 308 309 291 290 264 256 259 251 245 229 213 198 213
329 334 334 328 322 316 315 322 322 313 316 316 311 311 313 317 318 317 323 312 302 297 308 303 239 238 254 259 251 243 205 195 204
328 351 341 338 329 327 323 324 317 308 305 305 301 298 299 304 308 313 304 317 304 301 294 298 306 300 281 270 257 274 251 206 212
342 331 336 343 347 354 345 335 320 321 320 302 292 289 286 295 293 300 309 295 303 306 299 305 305 307 301 309 303 285 336 327 311
335 325 321 319 324 325 327 324 320 321 323 337 324 293 289 288 303 291 298 297 294 259 238 265 261 261 262 295 275 287 294 300 287
343 328 329 325 325 323 323 324 320 316 316 316 306 300 294 289 280 282 296 290 292 296 292 257 274 265 247 239 260 278 274 283 288